Location: Enikep?du
(16.5133°N, 80.7066°E)
Time: 10:49:13
(UTC+00:00)

ARGOS - Pass Details

Date: 15 May 2026
Orbit: 817 x 834 km, 98.5° (Epoch: 8 June)

Event Time Altitude Azimuth Distance (km) Brightness Sun altitude
Rises 22:51:50 0° 351° (N) 3,337 6.5 -17.2°
Reaches altitude 10° 22:54:38 10° 337° (NNW) 2,405 5.6 -16.6°
Maximum altitude 22:58:41 23° 287° (WNW) 1,690 4.4 -15.8°
Enters shadow 22:59:52 21° 268° (W) 1,763 4.3 -15.5°
